SL-16 DEB

Satellite information

Favourite Embed

Satellite Type and Status

DEBRISIN ORBIT

Key statistics

Satellite SL-16 DEB at a glance.

Uptime

6742

Days in orbit

Revolutions

≈ 13.7

Per day

Orbit

LEO

Low Earth Orbit

Inclination

70.9

Latest

Satellite identification and parameters

Extended collection of information and parameters for SL-16 DEB.

Object identification

Identified? True

Debris? True

Object name: SL-16 DEB

International designator: 2007-029F

Object number (NORAD): 31799

Object ID (CCSDS): 31799

Country: COMMONWEALTH OF INDEPENDENT STATES (CIS)

Current information (Y/N): Y

RCS size: SMALL

Orbital parameters

Period: 105.385 minutes

Inclination: 70.944 deg

SMA: 7390.59 km

Apoapsis: 1177.714 km

Periapsis: 847.197 km

RAAN: 349.9168 deg

Eccentricy: 0.02236061

Argument of periapsis: 65.7998 deg

Mean anomaly: 316.1293 deg

Mean motion: 13.66419526 rev/day

Mean motion (dot): 0.00000268 rev/day2

B* drag term: 0.00031466137 1/REarth

Two-line elements (TLE)

Creation date: Dec. 12, 2025, 10:14 a.m.

Reference frame: TEME

Reference center: EARTH

Epoch: Dec. 12, 2025, 7 a.m. UTC

TLE line 0: 0 SL-16 DEB

TLE line 1: 1 31799U 07029F 25346.29166971 .00000268 00000-0 31466-3 0 9997

TLE line 2: 2 31799 70.9440 349.9168 0223606 65.7998 316.1293 13.66419526919869

Live tracking on map

Real-time ground track for satellite SL-16 DEB.

In-orbit conjunctions

A list of the most updated potential collisions computed for object SL-16 DEB.

Target Orbit TCA Probability of collision Miss distance Type
SL-8 R/B LEO 2024-08-13 08:02:14 0.002388341 43.0 (m) ROCKET BODY
CZ-4B DEB SSO 2024-07-12 01:11:10 0.0001136648 264.0 (m) DEBRIS

Associated space launch

Second generation ELING satellite

SL-16 DEB was lifted into orbit during the mission ‘Zenit 2M | Tselina-2 23’, on board a Zenit 2M space rocket.

The launch took place on June 29, 2007, 10 a.m. from 45/1.

For more information about the launch, click the button.

Launch to space Zenit 2M | Tselina-2 23
Zenit 2M | Tselina-2 23

Agency: N/A

Status: Launch Successful

Launch date: June 29, 2007, 10 a.m. UTC

Rocket: Zenit 2M

Launch pad: 45/1

Location: Baikonur Cosmodrome, Republic of Kazakhstan

...

Latest news about this satellite

There are no fresh news available about this satellite. Check back as we update our databases every day.


Newsletter sign-up

Weekly statistics, charts and insights to help you stay on top of the space industry.